Location: Unspecified
(35.6961°N, 0.0000°E)
Time: 11:01:45
(UTC+00:00)

Altair - Pass Details

Date: 20 May 2019
Orbit: 1501 x 1683 km, 47.2° (Epoch: 17 June)

Event Time Altitude Azimuth Distance (km) Brightness Sun altitude
Rises 10:47:10 0° 303° (WNW) 4,909 9.9 68.1°
Reaches altitude 10° 10:50:21 10° 304° (NW) 3,903 9.5 68.6°
Maximum altitude 11:00:23 90° 216° (SW) 1,614 9.4 70.0°
Drops below altitude 10° 11:09:58 10° 127° (SE) 3,750 10.0 71.2°
Sets 11:12:58 0° 127° (SE) 4,709 10.3 71.6°
